Snowfall_Accumulation
nan nan nan nan nan nan nan nan nan nan nan nan nan nan nan nan nan 0.0 0.0 0.0 0.0 0.6 0.0 0.0 0.0 0.0 0.0 0.0 1.6 0.2 1.8 0.6 0.7 4.9 5.0 3.2 1.0 0.3 0.2 0.0 0.0 0.0 0.6 1.0 1.0 2.0 2.1 0.0 0.0 0.0 0.1 0.0 0.0 0.0
nan nan nan nan nan nan nan nan nan nan nan nan nan nan nan nan nan nan 0.0 0.0 0.0 0.0 0.1 0.0 0.0 0.0 0.0 0.0 0.0 0.0 0.1 0.0 0.3 2.4 2.7 1.6 2.8 1.1 0.3 2.8 0.0 1.0 0.1 0.4 0.1 0.4 0.0 0.0 0.0 0.0 0.0 0.0 0.0 0.0
nan nan nan nan nan nan nan nan nan nan nan nan nan nan nan nan nan nan 0.0 0.0 0.0 0.2 0.0 0.0 0.0 0.0 0.0 0.0 0.0 0.1 0.0 0.0 0.0 0.0 1.1 0.7 0.4 0.3 1.5 0.6 0.2 0.0 0.1 1.2 0.1 0.0 0.0 0.0 0.0 0.0 0.0 0.0 0.0 0.0
nan nan nan nan nan nan nan nan nan nan nan nan nan nan nan nan nan nan 0.0 0.0 0.0 0.0 2.8 0.2 0.0 0.0 0.0 0.0 0.0 0.0 0.0 0.0 0.0 0.0 1.1 1.5 1.0 0.1 0.4 0.3 0.2 0.2 0.1 0.0 0.0 0.0 0.0 0.0 0.0 0.0 0.0 0.0 0.0 0.0
nan nan nan nan nan nan nan nan nan nan nan nan nan nan nan nan nan nan 0.0 0.0 0.0 0.5 1.7 0.5 0.0 0.0 0.0 0.0 0.0 0.0 0.0 0.0 0.0 0.3 1.2 1.0 0.3 0.7 0.1 0.1 0.1 0.0 0.0 1.2 0.6 0.0 0.0 0.0 0.0 0.0 0.0 0.0 0.0 0.0
nan nan nan nan nan nan nan nan nan nan nan nan nan nan nan nan nan 0.0 4.6 0.0 0.0 0.0 2.2 2.9 0.0 0.0 0.0 0.0 0.0 0.0 0.0 0.0 0.0 0.1 0.4 0.0 0.0 0.0 0.7 0.3 0.0 0.0 0.0 0.0 0.1 0.0 0.0 0.0 0.0 0.0 0.0 0.0 0.0 0.0
nan nan nan nan nan nan nan nan nan nan nan nan nan nan nan nan 0.0 0.6 0.5 0.0 nan 0.0 1.6 2.1 0.9 0.0 0.0 0.0 0.0 0.0 0.0 0.0 0.1 0.1 0.3 0.0 0.0 0.0 0.4 0.3 0.0 0.0 0.0 0.0 0.0 0.0 0.0 0.0 0.0 0.0 0.0 0.0 0.0 0.0
nan nan nan nan nan nan nan nan nan nan nan nan nan nan nan nan nan 0.4 0.0 nan nan 0.0 0.2 3.8 1.8 0.4 0.0 0.6 1.0 0.0 0.3 0.1 0.2 0.2 0.4 0.2 0.0 0.1 1.0 0.0 0.0 0.0 0.0 0.0 0.0 0.0 0.0 0.0 0.0 0.0 0.0 0.0 0.0 0.0
nan nan nan nan nan nan nan nan nan nan nan nan nan nan 0.0 0.0 1.6 0.1 nan nan 0.0 1.3 5.5 1.9 1.4 5.4 0.2 0.7 1.0 1.1 0.5 2.8 0.3 0.5 0.0 0.0 0.4 1.1 0.1 0.0 0.0 0.0 0.0 0.0 0.0 0.0 0.0 0.0 0.0 0.0 0.0 0.0 0.0 0.0
nan nan nan nan nan nan nan nan nan nan nan nan 0.0 0.5 9.5 0.9 nan nan 0.3 4.6 3.0 0.8 1.1 0.9 0.2 2.3 0.6 1.3 3.3 1.2 1.5 1.7 1.7 0.7 0.0 0.5 0.3 0.0 0.0 0.0 0.0 0.0 0.0 0.0 0.0 0.0 0.0 0.0 0.0 0.0 0.0 0.0 0.0 0.0
nan nan nan nan nan nan nan nan nan nan nan 0.1 3.4 2.1 0.1 nan 0.1 1.3 9.8 7.7 2.6 1.9 0.2 0.1 0.1 0.9 0.7 2.6 2.4 1.1 2.9 1.6 1.8 0.5 0.5 0.7 0.5 0.1 0.0 0.0 0.0 0.0 0.0 0.0 0.0 0.0 0.0 0.0 0.0 0.0 0.0 0.0 0.0 0.0
nan nan nan nan nan nan nan nan nan 0.0 0.1 0.1 0.0 0.0 0.2 1.4 3.0 1.2 4.6 1.5 0.8 0.1 0.2 0.2 0.1 0.0 0.4 0.5 2.6 2.2 1.4 1.1 1.0 0.2 2.5 1.4 0.4 0.0 0.0 0.0 0.0 0.0 0.0 0.0 0.0 0.0 0.0 0.0 0.0 0.0 0.0 0.0 0.0 0.1
nan nan nan nan nan nan nan nan nan nan nan 0.0 0.5 0.5 1.7 4.2 31.8 3.2 5.2 1.4 6.2 0.4 0.5 0.3 2.7 0.4 0.3 0.4 2.6 1.8 4.6 4.8 0.3 4.3 1.1 0.6 0.1 0.0 0.0 0.0 0.0 0.0 0.0 0.0 0.0 0.0 0.0 0.0 0.0 0.0 0.3 0.6 1.5 2.1
nan nan nan nan nan nan nan nan nan 0.0 0.0 1.4 2.6 32.1 5.8 4.0 1.1 1.3 0.5 0.6 0.5 0.3 0.3 0.2 0.8 1.8 1.5 2.7 2.7 4.1 1.1 0.4 4.1 2.5 1.1 0.4 0.0 0.1 0.0 0.0 0.0 0.1 0.3 0.2 0.1 0.2 0.6 1.1 2.3 2.3 3.7 4.6 4.0 3.3
nan nan nan nan nan nan nan nan nan 0.0 0.2 1.2 1.1 15.0 4.5 0.7 0.8 0.8 0.6 0.7 0.3 0.2 0.2 0.8 0.5 0.9 3.2 3.8 0.7 0.4 2.3 2.7 1.2 1.4 0.8 0.6 0.1 0.0 0.1 0.0 0.1 0.3 1.7 1.0 0.3 0.6 2.6 2.8 1.6 1.9 2.6 2.0 1.0 4.6
nan nan 0.0 nan nan nan nan nan 0.0 0.0 0.4 0.4 0.2 1.2 0.6 2.9 7.5 6.3 2.2 1.8 0.3 0.3 0.5 0.5 2.2 3.3 2.8 2.2 0.3 1.4 0.2 1.1 1.4 0.9 0.7 0.7 0.1 0.2 0.2 0.2 0.5 0.6 0.4 0.4 0.3 0.3 0.7 2.1 1.7 0.8 1.0 1.5 5.2 4.7
nan 0.0 nan nan nan nan nan 0.0 0.1 0.2 0.7 0.0 5.5 1.4 1.7 1.3 3.4 2.4 0.8 0.4 0.2 0.8 4.3 0.9 1.1 0.5 0.3 1.1 0.2 0.5 3.5 1.4 0.9 0.8 0.9 0.1 0.1 0.2 0.6 1.0 2.9 0.8 0.3 0.3 0.3 0.2 0.3 0.5 0.5 0.2 0.4 0.6 0.3 0.6
0.0 0.0 nan nan nan nan 0.2 0.1 0.4 0.4 0.2 1.3 7.5 4.5 1.9 1.6 1.9 1.5 0.6 0.2 0.2 0.2 0.4 0.6 0.1 0.2 3.9 0.5 2.2 1.0 0.9 1.3 1.3 1.5 1.2 0.5 0.2 0.4 0.1 0.2 0.4 0.2 0.2 0.3 0.4 0.4 0.4 0.6 0.2 0.9 0.2 0.2 0.3 0.2
0.0 0.0 nan nan 0.0 0.0 0.4 0.3 0.1 1.2 2.5 1.4 1.5 1.0 1.1 2.6 0.6 0.4 0.3 0.2 0.1 0.0 0.2 0.3 0.3 0.8 1.4 0.8 1.1 1.2 1.4 1.0 1.3 1.5 1.1 0.3 0.2 0.4 0.4 0.2 0.2 0.1 0.2 0.1 0.1 0.6 0.5 0.1 0.3 0.4 0.4 0.3 0.5 0.6
nan nan nan nan nan 0.1 0.0 0.7 0.0 0.2 1.4 3.0 0.7 0.8 1.0 1.0 0.5 1.4 0.8 0.3 0.2 0.6 0.5 0.6 1.1 1.1 0.9 0.8 0.5 0.6 0.7 0.6 0.4 0.8 1.1 1.1 0.8 0.1 0.2 0.3 0.6 0.2 0.4 0.1 0.5 0.1 0.5 0.4 0.3 0.4 0.4 0.5 1.4 2.1
nan nan nan 0.0 0.0 0.0 0.2 0.7 0.3 0.4 1.1 1.8 0.9 0.3 1.9 0.4 1.5 2.4 1.8 0.6 3.0 1.1 0.8 0.7 1.2 0.7 0.1 0.4 0.3 0.3 0.3 0.2 0.4 0.3 0.4 1.2 0.9 0.5 0.6 0.6 0.6 0.6 0.6 0.7 1.4 1.2 0.6 1.0 0.7 0.6 5.2 7.5 4.3 3.1
0.0 nan 0.0 0.0 0.6 0.3 0.8 0.1 0.5 0.5 1.0 1.0 0.7 0.4 1.5 6.2 4.8 2.3 0.7 2.7 1.2 1.4 0.9 0.7 0.6 0.3 0.3 0.1 0.3 0.0 0.0 0.0 0.0 0.4 0.1 0.2 0.8 0.7 0.8 0.7 0.6 1.1 1.0 1.6 1.0 2.3 1.3 0.7 1.2 1.6 4.5 8.4 3.0 3.8
nan 0.0 0.3 0.1 1.4 4.4 10.7 0.2 0.6 0.3 2.6 1.3 0.7 0.9 1.9 1.4 0.9 0.1 3.0 0.5 1.4 1.1 0.7 0.4 0.1 0.0 0.2 0.0 0.0 0.0 0.0 0.0 0.2 0.4 0.7 0.7 0.6 0.8 0.8 0.7 0.7 2.3 2.0 1.0 0.6 1.1 2.0 1.8 2.2 7.1 5.0 5.8 6.3 15.0
nan 1.4 4.8 3.6 2.7 12.6 0.9 3.8 0.3 0.7 0.7 1.4 1.4 1.7 0.3 0.8 0.3 1.7 2.0 1.6 1.7 1.0 0.6 0.1 0.4 0.4 0.2 0.0 0.3 0.3 0.3 0.3 0.3 0.5 0.6 0.9 1.2 1.5 0.7 0.7 0.9 0.9 0.7 0.7 1.1 2.1 2.4 7.6 5.7 4.3 10.8 18.9 23.0 20.7
11.5 17.8 5.5 28.5 2.2 7.0 5.7 3.7 1.3 0.9 3.6 2.7 2.0 2.5 6.6 0.4 3.8 2.5 0.6 2.0 3.1 3.0 1.5 0.7 0.4 0.5 0.7 0.9 0.9 0.9 0.2 0.8 1.2 1.5 1.2 0.8 1.3 1.5 1.4 1.0 1.1 0.9 1.1 5.8 8.7 11.7 12.2 12.4 13.1 12.7 8.3 22.1 8.3 10.8
31.1 11.9 14.7 3.0 7.4 3.4 2.1 5.5 5.5 6.0 3.2 4.8 3.7 1.6 1.3 4.1 4.2 4.1 1.2 7.3 6.3 2.3 8.7 5.3 2.0 0.6 0.4 0.4 0.8 0.8 0.8 0.7 0.8 1.0 1.0 0.7 0.8 2.1 3.1 3.4 2.8 3.0 1.5 3.9 8.4 14.9 11.9 13.9 15.7 9.1 15.6 9.9 9.0 20.2
32.2 15.8 0.8 0.2 0.4 0.2 7.2 4.5 0.6 2.9 4.8 6.8 2.9 5.3 5.3 13.4 7.6 3.9 3.0 3.9 1.7 1.9 0.9 0.8 0.5 0.4 0.5 0.5 0.5 0.9 0.8 0.9 0.8 0.9 0.8 0.7 0.8 0.8 2.0 6.2 3.7 2.2 1.5 3.6 6.4 15.1 16.6 17.0 18.3 13.0 16.3 17.3 18.9 21.1
4.1 1.7 12.2 4.4 7.9 1.2 7.2 4.8 4.6 5.8 2.9 1.2 3.4 6.6 8.8 7.1 5.6 3.9 2.5 2.0 2.3 0.8 0.9 1.0 0.7 0.5 0.6 0.8 1.2 2.3 3.4 3.1 3.9 2.6 2.1 2.0 1.9 3.5 3.5 3.7 3.3 6.2 4.6 10.1 12.1 13.5 10.5 17.2 20.1 20.3 18.6 19.1 22.0 20.5
5.0 1.7 2.5 14.9 6.0 4.1 7.2 7.1 5.9 2.1 0.7 1.7 11.6 5.3 2.9 1.5 4.3 3.0 2.9 2.5 1.7 1.7 3.2 4.8 7.1 6.8 3.7 2.9 4.7 3.8 5.3 6.3 5.5 7.3 8.2 9.6 10.7 10.1 5.4 6.6 7.7 9.4 8.7 9.8 7.1 8.3 9.7 14.4 17.1 19.9 18.3 21.6 21.4 24.0
4.6 1.4 5.7 8.3 12.0 6.9 10.7 7.7 8.8 6.3 0.6 1.8 1.1 1.1 1.2 4.6 7.2 2.5 3.6 4.0 7.0 15.9 20.8 16.4 15.9 14.6 24.0 17.8 16.5 11.2 10.3 11.8 9.3 12.6 16.7 13.4 9.8 10.7 12.6 15.5 14.5 13.7 13.4 24.3 15.9 8.5 8.0 17.3 15.2 25.4 22.8 22.2 23.0 25.6
1.5 6.2 8.7 4.4 8.0 13.4 12.3 12.8 12.7 6.0 6.3 12.7 11.3 15.2 10.6 8.6 9.7 5.7 5.1 8.7 7.9 25.9 29.0 34.1 32.2 26.8 25.2 17.6 26.2 25.1 18.5 21.1 9.1 6.1 5.7 9.1 11.5 16.9 18.1 16.0 15.8 17.7 18.6 17.8 22.8 19.0 19.0 22.7 23.0 23.8 18.6 16.3 17.9 19.8
9.3 14.8 18.8 12.3 12.6 18.7 9.6 24.5 19.6 19.0 20.1 23.0 22.6 18.2 22.0 21.3 15.1 10.7 14.2 22.0 25.0 29.1 8.9 20.0 33.6 18.8 14.6 13.5 19.8 14.1 9.1 9.3 10.4 10.2 8.8 12.9 16.5 18.4 12.1 10.0 21.1 20.6 17.6 20.4 18.9 20.0 15.9 21.6 23.0 25.5 23.2 19.7 19.0 17.7
22.8 16.4 11.7 12.2 22.5 12.5 14.4 19.3 4.9 17.0 20.2 22.1 20.8 18.8 23.0 19.8 15.4 16.3 6.9 18.1 23.8 23.1 22.2 25.6 25.8 28.9 15.8 13.7 14.2 16.7 11.2 13.1 12.6 10.3 9.0 8.9 8.8 9.5 14.1 19.7 22.8 18.6 12.1 18.2 20.3 19.5 15.7 12.1 16.6 16.5 19.2 23.0 21.5 20.0
Water_Equivalent
nan nan nan nan nan nan nan nan nan nan nan nan nan nan nan nan nan 0.00 0.00 0.00 0.00 0.18 0.00 0.00 0.00 0.00 0.00 0.00 0.29 0.04 0.35 0.18 0.16 0.96 0.83 0.47 0.19 0.05 0.04 0.00 0.00 0.00 0.12 0.24 0.19 0.35 0.33 0.00 0.00 0.00 0.03 0.00 0.00 0.00
nan nan nan nan nan nan nan nan nan nan nan nan nan nan nan nan nan nan 0.00 0.00 0.00 0.00 0.03 0.00 0.00 0.00 0.00 0.00 0.00 0.00 0.03 0.00 0.07 0.53 0.62 0.39 0.51 0.26 0.05 0.57 0.01 0.24 0.01 0.08 0.02 0.09 0.00 0.00 0.00 0.00 0.00 0.00 0.00 0.00
nan nan nan nan nan nan nan nan nan nan nan nan nan nan nan nan nan nan 0.00 0.00 0.00 0.06 0.00 0.01 0.01 0.00 0.00 0.00 0.00 0.03 0.00 0.00 0.01 0.00 0.30 0.19 0.08 0.06 0.28 0.12 0.04 0.01 0.05 0.47 0.03 0.00 0.00 0.00 0.00 0.00 0.00 0.00 0.00 0.00
nan nan nan nan nan nan nan nan nan nan nan nan nan nan nan nan nan nan 0.00 0.00 0.00 0.00 0.64 0.06 0.00 0.00 0.00 0.00 0.00 0.00 0.00 0.00 0.00 0.00 0.27 0.38 0.23 0.01 0.09 0.06 0.05 0.06 0.02 0.00 0.01 0.00 0.00 0.00 0.00 0.00 0.00 0.00 0.00 0.00
nan nan nan nan nan nan nan nan nan nan nan nan nan nan nan nan nan nan 0.00 0.00 0.00 0.11 0.37 0.10 0.00 0.00 0.00 0.00 0.00 0.00 0.00 0.00 0.00 0.07 0.28 0.22 0.06 0.13 0.02 0.02 0.04 0.00 0.00 0.30 0.17 0.00 0.00 0.00 0.00 0.00 0.00 0.00 0.00 0.00
nan nan nan nan nan nan nan nan nan nan nan nan nan nan nan nan nan 0.00 1.30 0.00 0.00 0.00 0.49 0.57 0.00 0.00 0.00 0.00 0.00 0.00 0.00 0.00 0.00 0.02 0.09 0.01 0.00 0.00 0.22 0.11 0.00 0.00 0.00 0.00 0.03 0.00 0.00 0.00 0.00 0.00 0.00 0.00 0.00 0.00
nan nan nan nan nan nan nan nan nan nan nan nan nan nan nan nan 0.00 0.16 0.12 0.00 nan 0.00 0.42 0.40 0.19 0.00 0.00 0.00 0.00 0.00 0.00 0.00 0.02 0.03 0.08 0.00 0.00 0.00 0.14 0.09 0.00 0.00 0.00 0.00 0.00 0.00 0.00 0.00 0.00 0.00 0.00 0.00 0.00 0.00
nan nan nan nan nan nan nan nan nan nan nan nan nan nan nan nan nan 0.09 0.00 nan nan 0.01 0.06 0.75 0.39 0.11 0.00 0.19 0.27 0.01 0.07 0.03 0.05 0.04 0.10 0.04 0.00 0.02 0.26 0.00 0.00 0.00 0.00 0.00 0.00 0.00 0.00 0.00 0.00 0.00 0.00 0.00 0.00 0.00
nan nan nan nan nan nan nan nan nan nan nan nan nan nan 0.00 0.01 0.44 0.03 nan nan 0.00 0.28 0.99 0.47 0.31 1.17 0.07 0.18 0.25 0.21 0.10 0.58 0.05 0.13 0.01 0.00 0.11 0.30 0.05 0.00 0.00 0.00 0.00 0.00 0.00 0.00 0.00 0.00 0.00 0.00 0.00 0.00 0.00 0.00
nan nan nan nan nan nan nan nan nan nan nan nan 0.00 0.16 2.48 0.22 nan nan 0.13 1.54 0.94 0.21 0.21 0.21 0.04 0.46 0.12 0.31 0.64 0.25 0.31 0.34 0.37 0.18 0.00 0.15 0.09 0.00 0.00 0.00 0.00 0.00 0.00 0.00 0.00 0.00 0.00 0.00 0.00 0.00 0.00 0.00 0.00 0.00
nan nan nan nan nan nan nan nan nan nan nan 0.04 0.95 0.52 0.02 nan 0.01 0.33 2.34 1.84 0.60 0.40 0.04 0.02 0.02 0.16 0.18 0.52 0.45 0.21 0.64 0.36 0.43 0.13 0.16 0.22 0.14 0.04 0.00 0.00 0.00 0.00 0.00 0.00 0.00 0.00 0.00 0.00 0.00 0.00 0.00 0.00 0.00 0.00
nan nan nan nan nan nan nan nan nan 0.00 0.03 0.03 0.00 0.00 0.05 0.36 0.72 0.23 1.11 0.37 0.18 0.04 0.07 0.06 0.02 0.01 0.10 0.09 0.53 0.48 0.32 0.30 0.18 0.06 0.77 0.41 0.12 0.00 0.00 0.00 0.00 0.00 0.00 0.00 0.00 0.00 0.00 0.00 0.00 0.00 0.00 0.00 0.01 0.02
nan nan nan nan nan nan nan nan nan nan nan 0.00 0.13 0.12 0.35 1.10 5.37 0.86 1.17 0.44 1.85 0.16 0.19 0.10 0.86 0.08 0.08 0.12 0.62 0.42 1.29 1.30 0.09 1.37 0.30 0.18 0.02 0.00 0.00 0.00 0.00 0.00 0.00 0.00 0.00 0.00 0.00 0.00 0.00 0.01 0.05 0.12 0.31 0.38
nan nan nan nan nan nan nan nan nan 0.00 0.00 0.36 0.64 5.55 1.59 1.27 0.34 0.39 0.19 0.22 0.18 0.13 0.12 0.07 0.22 0.37 0.34 0.67 0.90 1.16 0.34 0.15 1.16 0.62 0.29 0.12 0.01 0.02 0.00 0.00 0.00 0.03 0.08 0.04 0.03 0.05 0.14 0.26 0.48 0.48 0.81 1.01 0.76 0.53
nan nan nan nan nan nan nan nan nan 0.00 0.08 0.32 0.28 2.88 1.21 0.25 0.27 0.31 0.22 0.23 0.13 0.07 0.09 0.21 0.15 0.18 0.70 1.08 0.27 0.13 0.73 0.85 0.38 0.40 0.23 0.17 0.01 0.01 0.02 0.01 0.02 0.06 0.38 0.22 0.07 0.13 0.56 0.57 0.32 0.36 0.49 0.37 0.18 0.78
nan nan 0.00 nan nan nan nan nan 0.00 0.01 0.13 0.10 0.05 0.38 0.23 0.91 2.40 2.22 0.85 0.71 0.10 0.11 0.13 0.13 0.43 0.66 0.72 0.61 0.11 0.47 0.08 0.30 0.38 0.24 0.20 0.20 0.03 0.05 0.06 0.06 0.13 0.13 0.09 0.08 0.06 0.06 0.13 0.40 0.33 0.14 0.17 0.26 0.96 0.86
nan 0.00 nan nan nan nan nan 0.00 0.06 0.04 0.20 0.01 1.65 0.46 0.57 0.46 1.14 0.92 0.34 0.17 0.07 0.21 1.30 0.21 0.30 0.09 0.10 0.32 0.05 0.15 0.96 0.38 0.24 0.21 0.22 0.02 0.03 0.05 0.13 0.22 0.62 0.16 0.06 0.06 0.06 0.04 0.06 0.08 0.09 0.04 0.06 0.10 0.05 0.10
0.00 0.00 nan nan nan nan 0.07 0.04 0.12 0.13 0.05 0.36 1.97 1.28 0.58 0.54 0.72 0.60 0.25 0.09 0.07 0.08 0.12 0.10 0.04 0.06 1.18 0.14 0.55 0.27 0.22 0.33 0.32 0.36 0.29 0.14 0.05 0.09 0.03 0.03 0.07 0.04 0.03 0.06 0.07 0.07 0.07 0.12 0.03 0.20 0.03 0.04 0.05 0.05
0.00 0.00 nan nan 0.00 0.01 0.14 0.08 0.04 0.31 0.70 0.41 0.42 0.31 0.34 0.79 0.21 0.15 0.14 0.08 0.02 0.00 0.06 0.11 0.08 0.23 0.40 0.21 0.32 0.35 0.37 0.26 0.30 0.34 0.25 0.07 0.06 0.08 0.09 0.04 0.03 0.03 0.04 0.03 0.01 0.14 0.12 0.02 0.08 0.10 0.09 0.08 0.13 0.16
nan nan nan nan nan 0.02 0.01 0.20 0.01 0.06 0.38 0.74 0.21 0.23 0.28 0.28 0.18 0.54 0.31 0.11 0.08 0.15 0.14 0.18 0.28 0.30 0.23 0.22 0.16 0.17 0.19 0.18 0.12 0.18 0.24 0.24 0.21 0.03 0.04 0.07 0.15 0.04 0.10 0.03 0.12 0.04 0.12 0.10 0.08 0.10 0.11 0.13 0.35 0.48
nan nan nan 0.00 0.00 0.00 0.07 0.17 0.07 0.11 0.27 0.42 0.22 0.10 0.46 0.16 0.43 0.71 0.50 0.17 0.90 0.28 0.22 0.18 0.32 0.19 0.03 0.12 0.10 0.10 0.09 0.05 0.12 0.09 0.12 0.23 0.21 0.14 0.14 0.16 0.15 0.15 0.14 0.17 0.37 0.29 0.16 0.25 0.17 0.14 1.56 2.11 1.22 0.86
0.00 nan 0.00 0.01 0.18 0.09 0.27 0.02 0.12 0.13 0.25 0.25 0.20 0.12 0.45 1.89 1.47 0.66 0.20 0.67 0.30 0.36 0.21 0.18 0.14 0.09 0.08 0.03 0.07 0.00 0.01 0.00 0.01 0.10 0.04 0.06 0.19 0.17 0.20 0.18 0.15 0.27 0.24 0.40 0.26 0.61 0.35 0.18 0.33 0.46 1.23 2.29 0.77 0.93
nan 0.02 0.10 0.05 0.42 1.04 2.21 0.05 0.17 0.07 0.65 0.37 0.22 0.26 0.57 0.43 0.26 0.03 0.78 0.13 0.36 0.27 0.18 0.10 0.01 0.00 0.04 0.00 0.00 0.00 0.00 0.00 0.06 0.12 0.18 0.18 0.15 0.23 0.22 0.19 0.20 0.65 0.50 0.23 0.16 0.31 0.51 0.55 0.63 1.94 1.34 1.43 1.46 3.29
nan 0.38 1.36 1.00 0.66 2.83 0.31 1.24 0.10 0.19 0.19 0.41 0.43 0.44 0.09 0.26 0.11 0.45 0.51 0.42 0.38 0.23 0.15 0.03 0.09 0.10 0.07 0.00 0.07 0.08 0.10 0.08 0.10 0.13 0.18 0.22 0.29 0.33 0.18 0.17 0.25 0.25 0.19 0.17 0.30 0.58 0.63 2.00 1.79 0.93 2.41 4.47 5.44 4.44
2.02 3.33 1.84 3.94 0.76 2.09 1.68 1.19 0.41 0.28 0.92 0.82 0.50 0.72 1.74 0.15 0.94 0.68 0.15 0.43 0.62 0.65 0.35 0.18 0.11 0.12 0.15 0.21 0.20 0.20 0.04 0.19 0.26 0.31 0.27 0.21 0.32 0.38 0.32 0.22 0.24 0.22 0.30 1.55 2.16 2.84 2.91 2.89 3.02 2.83 1.73 5.04 1.64 2.12
4.70 3.65 3.24 0.98 2.18 1.04 0.56 1.32 1.34 1.59 0.85 1.15 1.01 0.46 0.46 1.13 0.93 0.87 0.25 1.29 1.34 0.52 2.38 1.52 0.57 0.17 0.11 0.11 0.16 0.17 0.17 0.16 0.19 0.22 0.22 0.16 0.20 0.57 0.82 0.79 0.61 0.63 0.38 1.09 2.17 3.68 2.70 3.13 3.51 1.81 3.27 2.00 2.54 4.27
4.02 3.58 0.24 0.06 0.12 0.06 1.74 1.44 0.20 0.85 1.12 1.47 0.78 1.31 1.38 2.35 1.67 0.64 0.56 0.72 0.35 0.45 0.24 0.22 0.16 0.12 0.12 0.11 0.11 0.19 0.18 0.21 0.18 0.21 0.19 0.16 0.19 0.19 0.55 1.48 0.80 0.50 0.39 1.01 1.81 4.11 4.11 3.93 4.17 2.74 3.40 3.73 4.05 4.40
0.87 0.45 1.70 1.28 1.97 0.37 1.53 1.02 1.07 1.25 0.67 0.30 0.79 1.39 1.86 1.53 0.90 0.71 0.46 0.47 0.59 0.21 0.23 0.26 0.19 0.13 0.16 0.20 0.26 0.48 0.71 0.65 0.84 0.58 0.47 0.43 0.41 0.77 0.75 0.85 0.77 2.03 1.16 2.61 3.25 3.54 2.64 4.28 4.66 4.62 4.03 4.05 4.52 4.25
1.05 0.49 0.64 1.77 0.98 0.87 1.31 1.41 1.11 0.42 0.15 0.47 2.49 1.03 0.64 0.29 0.90 0.61 0.58 0.54 0.45 0.46 0.65 0.94 1.37 1.56 0.81 0.62 1.00 0.79 1.09 1.35 1.15 1.33 1.75 1.79 1.95 1.69 1.01 1.28 1.47 1.89 1.79 2.04 2.35 2.37 2.35 3.06 3.63 4.15 4.22 4.62 4.46 4.84
0.90 0.42 1.19 1.40 1.34 1.02 2.18 1.52 1.95 1.51 0.14 0.47 0.28 0.24 0.25 0.83 1.28 0.56 0.79 0.81 1.25 3.12 4.69 3.65 3.40 3.18 4.73 3.28 2.77 2.03 2.21 2.77 2.21 3.05 3.49 2.51 1.95 1.94 2.35 3.00 2.90 2.75 2.71 5.28 2.97 1.36 2.31 3.18 3.63 4.74 4.03 3.69 4.00 4.25
0.39 1.65 1.98 1.00 1.55 3.00 2.83 3.19 3.23 1.50 1.66 3.00 2.97 3.27 2.08 1.50 1.65 1.08 0.88 1.44 1.38 5.55 6.04 6.34 6.12 6.23 4.94 3.04 5.04 4.51 3.01 4.52 1.80 1.21 1.16 1.88 2.35 3.34 3.64 3.16 3.15 3.62 3.79 3.51 4.47 3.14 2.92 3.69 3.98 4.02 2.83 2.51 2.54 2.65
2.15 3.50 2.83 1.61 2.39 4.42 2.30 5.63 4.33 3.87 4.79 4.42 4.88 4.13 4.77 3.88 2.42 1.62 1.92 3.16 4.00 4.79 2.67 3.82 5.94 2.78 2.56 2.34 3.98 2.93 2.94 1.73 1.78 1.75 1.75 2.44 3.11 3.57 2.20 1.84 4.35 4.32 3.50 3.85 3.24 3.32 2.66 3.43 3.25 3.66 3.09 2.71 2.45 2.19
5.35 3.74 2.39 2.24 4.73 2.69 3.07 4.03 1.06 3.57 3.20 3.67 4.21 3.84 4.14 3.30 2.04 2.42 1.03 2.75 3.65 3.87 3.26 4.44 4.70 5.62 2.89 2.46 2.21 2.49 2.80 2.12 2.62 3.40 2.97 2.95 2.91 2.79 2.53 3.85 4.66 3.58 2.15 3.07 3.45 3.06 2.60 1.91 2.09 2.34 2.43 2.78 2.52 2.29
SL_Ratio
nan nan nan nan nan nan nan nan nan nan nan nan nan nan nan nan nan nan nan nan nan 3.4 nan nan nan 5.0 nan nan 5.3 4.4 5.2 3.4 4.1 5.1 6.0 6.8 5.2 6.3 4.0 nan nan 3.3 4.8 4.2 5.1 5.9 6.6 nan nan 5.0 4.1 nan nan nan
nan nan nan nan nan nan nan nan nan nan nan nan nan nan nan nan nan nan nan nan nan nan 3.4 nan nan nan nan nan nan nan 4.8 5.0 3.9 4.6 4.3 4.1 5.4 4.4 5.8 4.8 2.8 4.3 4.0 4.5 4.7 4.1 nan nan nan nan nan nan nan nan
nan nan nan nan nan nan nan nan nan nan nan nan nan nan nan nan nan nan nan nan nan 2.6 4.0 2.6 2.5 nan nan nan nan 2.9 nan nan 2.7 nan 3.6 3.7 5.6 4.8 5.3 4.7 4.3 2.6 2.5 2.5 3.3 nan nan nan nan nan nan nan nan nan
nan nan nan nan nan nan nan nan nan nan nan nan nan nan nan nan nan nan nan nan nan nan 4.3 4.1 nan nan nan nan nan nan nan nan nan nan 4.1 3.9 4.4 5.1 4.2 4.3 5.1 3.8 5.9 4.0 3.1 nan nan nan nan nan nan nan nan nan
nan nan nan nan nan nan nan nan nan nan nan nan nan nan nan nan nan nan nan nan nan 4.6 4.7 4.8 nan nan nan nan nan nan nan nan nan 4.3 4.3 4.7 5.1 5.0 5.2 3.3 3.2 nan nan 4.1 3.5 nan nan nan nan nan nan nan nan nan
nan nan nan nan nan nan nan nan nan nan nan nan nan nan nan nan nan nan 3.6 nan nan nan 4.6 5.1 0.0 nan nan nan nan nan nan nan nan 4.5 4.1 3.7 nan 4.6 3.3 3.1 nan nan nan nan 2.7 nan nan 0.0 nan nan nan nan nan nan
nan nan nan nan nan nan nan nan nan nan nan nan nan nan nan nan nan 3.6 4.0 nan nan nan 3.9 5.3 4.9 nan nan nan nan nan nan nan 3.6 4.2 4.3 5.7 nan nan 3.0 3.0 nan nan nan nan nan nan nan nan nan nan nan nan nan nan
nan nan nan nan nan nan nan nan nan nan nan nan nan nan nan nan nan 4.1 nan nan nan 4.7 3.8 5.1 4.7 3.9 nan 3.0 3.7 3.1 4.1 4.5 4.9 4.8 4.5 5.1 nan 2.9 3.7 nan nan nan nan nan nan nan nan nan nan nan nan nan nan nan
nan nan nan nan nan nan nan nan nan nan nan nan nan nan 2.9 5.0 3.8 3.2 nan nan nan 4.5 5.6 4.0 4.7 4.6 3.4 3.8 3.9 5.2 4.8 4.8 5.2 3.6 3.1 5.0 3.8 3.7 3.2 nan nan nan nan nan nan nan nan nan nan nan nan nan nan nan
nan nan nan nan nan nan nan nan nan nan nan nan nan 3.3 3.8 3.8 nan nan 2.6 3.0 3.2 3.8 5.2 4.3 5.0 5.0 4.7 4.2 5.0 4.8 4.9 4.8 4.6 4.0 3.8 3.4 3.3 nan nan nan nan nan nan nan nan nan nan nan nan nan nan nan nan nan
nan nan nan nan nan nan nan nan nan nan nan 2.8 3.6 4.0 3.8 nan 4.0 3.8 4.2 4.2 4.3 4.7 4.3 3.2 5.1 5.7 3.9 5.0 5.4 5.0 4.5 4.6 4.3 3.7 2.9 3.2 3.2 3.0 nan nan nan nan nan nan nan nan nan nan nan nan nan nan nan nan
nan nan nan nan nan nan nan nan nan nan 2.6 3.3 nan nan 3.6 4.0 4.2 5.4 4.1 4.0 4.4 3.3 3.4 2.5 2.6 5.2 4.2 5.0 5.0 4.6 4.5 3.8 5.5 2.9 3.2 3.5 3.7 nan nan nan nan nan nan nan nan nan nan nan nan nan nan 3.6 4.4 4.5
nan nan nan nan nan nan nan nan nan nan nan nan 3.8 4.5 4.9 3.8 5.9 3.8 4.5 3.3 3.3 2.5 2.5 2.7 3.1 4.6 3.9 3.1 4.3 4.4 3.6 3.7 2.8 3.2 3.8 3.5 3.5 nan nan nan nan nan nan nan nan nan nan nan nan 3.8 4.8 4.9 4.7 5.6
nan nan nan nan nan nan nan nan nan nan nan 4.0 4.0 5.8 3.6 3.2 3.2 3.3 2.9 2.7 2.5 2.5 2.7 2.8 3.7 4.9 4.3 4.1 3.0 3.5 3.1 3.0 3.6 4.1 3.6 3.5 3.3 4.1 nan nan nan 3.8 3.6 3.9 3.8 3.9 4.3 4.5 4.7 4.7 4.5 4.5 5.3 6.2
nan nan nan nan nan nan nan nan nan nan 2.5 3.8 3.8 5.2 3.7 2.8 2.9 2.7 2.6 2.9 2.5 2.5 2.5 3.7 3.4 5.0 4.5 3.5 2.7 2.8 3.1 3.1 3.3 3.5 3.7 3.4 3.9 3.9 4.2 3.8 4.2 4.4 4.5 4.6 4.4 4.6 4.6 4.9 5.1 5.4 5.3 5.3 5.4 6.0
nan nan nan nan nan nan nan nan nan 2.5 3.3 3.6 3.4 3.1 2.7 3.2 3.1 2.8 2.6 2.5 3.1 2.7 3.6 3.7 5.2 5.0 3.9 3.6 3.0 3.1 3.1 3.7 3.6 3.8 3.8 3.8 4.3 4.2 4.0 4.1 4.2 4.1 4.3 4.7 4.8 4.9 5.0 5.2 5.2 5.8 5.7 5.8 5.4 5.4
nan 0.0 nan nan nan nan nan 1.7 2.5 4.5 3.3 3.8 3.3 3.0 3.0 2.7 3.0 2.6 2.5 2.6 2.5 3.6 3.3 4.2 3.8 5.1 3.2 3.4 4.2 3.5 3.6 3.8 3.9 4.0 3.9 3.6 4.1 4.2 4.3 4.6 4.8 4.9 5.0 5.1 5.1 5.2 5.4 5.5 5.7 5.6 5.9 5.7 5.4 6.0
nan nan nan nan nan nan 2.5 2.8 3.4 3.2 3.9 3.5 3.8 3.5 3.3 3.1 2.7 2.5 2.5 2.5 2.5 2.6 3.6 5.7 2.8 3.2 3.3 3.7 4.0 3.8 3.9 4.0 4.0 4.0 4.0 3.9 4.0 4.1 4.1 4.4 5.0 4.8 4.8 5.3 5.4 5.4 5.5 5.2 4.9 4.5 5.4 5.7 5.3 5.3
nan nan nan nan nan 2.6 3.2 3.4 3.1 3.9 3.7 3.4 3.5 3.3 3.3 3.2 2.9 2.8 2.5 2.5 2.5 nan 2.7 3.1 4.5 3.6 3.6 3.6 3.5 3.5 3.7 3.8 4.4 4.3 4.5 4.5 4.4 4.6 4.8 4.8 4.7 4.5 5.3 4.7 4.3 4.1 4.1 4.4 4.0 4.0 4.0 3.9 4.0 3.9
nan nan nan nan nan 2.6 4.1 3.6 2.6 3.5 3.8 4.0 3.2 3.6 3.7 3.5 2.8 2.5 2.5 2.5 3.0 3.7 3.4 3.6 3.7 3.7 3.7 3.6 3.3 3.4 3.6 3.5 3.6 4.3 4.6 4.5 3.9 4.5 4.4 3.9 3.9 4.1 4.2 4.7 4.2 4.0 4.0 4.0 3.9 3.8 3.9 4.0 4.1 4.3
nan nan nan nan nan nan 3.4 3.9 4.1 3.5 4.2 4.2 3.9 3.4 4.0 2.8 3.5 3.4 3.5 3.5 3.3 3.8 3.7 3.7 3.7 3.7 3.1 3.2 3.0 3.0 3.5 3.2 3.6 3.2 3.6 5.1 4.1 3.8 4.1 3.8 4.0 3.9 4.0 4.3 3.9 4.2 3.9 4.2 4.0 3.9 3.3 3.5 3.5 3.6
nan nan 2.7 2.6 3.1 3.4 3.0 3.2 4.0 4.0 3.9 4.0 3.6 3.4 3.3 3.3 3.2 3.4 3.7 4.0 4.0 4.0 4.0 4.1 3.9 3.5 3.5 3.4 3.5 3.1 3.5 2.5 3.8 3.6 3.8 3.7 4.4 4.3 4.3 4.0 3.9 4.1 4.1 3.9 4.0 3.7 3.8 4.0 3.6 3.5 3.7 3.7 3.9 4.1
nan 2.5 2.7 2.7 3.3 4.2 4.8 3.1 3.8 3.7 4.0 3.5 3.4 3.5 3.3 3.3 3.6 3.3 3.9 4.0 4.0 4.0 4.1 3.9 4.1 4.7 4.0 nan nan nan nan nan 3.3 3.6 3.7 3.8 3.7 3.6 3.8 3.9 3.5 3.6 4.0 4.3 3.7 3.6 4.0 3.2 3.6 3.6 3.7 4.1 4.3 4.6
nan 3.7 3.5 3.5 4.1 4.5 3.0 3.0 3.3 3.6 3.4 3.3 3.3 3.9 3.7 3.2 3.1 3.8 4.0 3.9 4.6 4.4 4.2 5.1 3.9 3.6 3.4 nan 3.7 3.6 3.4 3.3 3.5 3.6 3.4 3.9 4.3 4.6 3.7 3.9 3.6 3.5 3.7 4.2 3.7 3.6 3.8 3.8 3.2 4.6 4.5 4.2 4.2 4.7
5.7 5.3 3.0 7.2 2.9 3.4 3.4 3.1 3.3 3.3 4.0 3.3 3.9 3.5 3.8 2.9 4.0 3.7 4.1 4.7 5.0 4.7 4.2 3.6 3.6 4.0 4.4 4.3 4.5 4.7 4.7 4.3 4.6 4.8 4.4 3.9 3.9 4.1 4.5 4.4 4.5 4.1 3.7 3.7 4.0 4.1 4.2 4.3 4.3 4.5 4.8 4.4 5.1 5.1
6.6 3.3 4.5 3.0 3.4 3.3 3.8 4.2 4.1 3.8 3.8 4.1 3.7 3.5 2.8 3.7 4.5 4.7 4.9 5.6 4.7 4.4 3.6 3.5 3.5 3.5 3.9 4.1 4.8 4.8 4.8 4.2 4.2 4.4 4.6 4.1 4.1 3.6 3.8 4.3 4.7 4.8 3.9 3.5 3.9 4.1 4.4 4.4 4.5 5.0 4.8 4.9 3.5 4.7
8.0 4.4 3.2 3.2 3.2 2.7 4.1 3.1 2.7 3.4 4.3 4.6 3.7 4.0 3.8 5.7 4.5 6.0 5.3 5.3 4.9 4.2 3.7 3.6 3.3 3.5 3.8 4.3 4.4 4.5 4.3 4.2 4.3 4.3 4.0 4.1 4.2 4.0 3.7 4.1 4.6 4.5 3.7 3.5 3.5 3.7 4.0 4.3 4.4 4.7 4.8 4.6 4.7 4.8
4.6 3.9 7.2 3.4 4.0 3.3 4.7 4.7 4.3 4.6 4.3 4.1 4.3 4.8 4.7 4.7 6.2 5.5 5.5 4.3 3.9 3.6 3.9 4.0 3.8 3.5 3.9 4.1 4.5 4.8 4.7 4.8 4.7 4.4 4.4 4.6 4.7 4.5 4.6 4.3 4.3 3.0 4.0 3.9 3.7 3.8 4.0 4.0 4.3 4.4 4.6 4.7 4.9 4.8
4.8 3.5 3.9 8.4 6.2 4.7 5.5 5.0 5.3 4.9 4.4 3.6 4.7 5.2 4.6 5.2 4.7 5.0 5.1 4.6 3.7 3.7 4.8 5.1 5.2 4.3 4.6 4.6 4.7 4.8 4.8 4.7 4.8 5.5 4.7 5.4 5.5 6.0 5.4 5.1 5.2 5.0 4.9 4.8 3.0 3.5 4.1 4.7 4.7 4.8 4.3 4.7 4.8 5.0
5.1 3.4 4.8 5.9 8.9 6.8 4.9 5.1 4.5 4.2 4.2 3.9 3.9 4.5 4.9 5.5 5.6 4.5 4.6 4.9 5.6 5.1 4.4 4.5 4.7 4.6 5.1 5.4 6.0 5.5 4.7 4.2 4.2 4.1 4.8 5.3 5.0 5.5 5.4 5.2 5.0 5.0 4.9 4.6 5.4 6.2 3.5 5.4 4.2 5.4 5.7 6.0 5.8 6.0
3.8 3.7 4.4 4.4 5.2 4.5 4.4 4.0 3.9 4.0 3.8 4.2 3.8 4.6 5.1 5.7 5.9 5.3 5.8 6.0 5.7 4.7 4.8 5.4 5.3 4.3 5.1 5.8 5.2 5.6 6.2 4.7 5.1 5.1 4.9 4.8 4.9 5.0 5.0 5.1 5.0 4.9 4.9 5.1 5.1 6.1 6.5 6.2 5.8 5.9 6.6 6.5 7.0 7.5
4.3 4.2 6.7 7.6 5.3 4.2 4.2 4.4 4.5 4.9 4.2 5.2 4.6 4.4 4.6 5.5 6.2 6.6 7.4 6.9 6.3 6.1 3.3 5.2 5.7 6.8 5.7 5.8 5.0 4.8 3.1 5.4 5.8 5.8 5.1 5.3 5.3 5.2 5.5 5.4 4.9 4.8 5.0 5.3 5.8 6.0 6.0 6.3 7.1 7.0 7.5 7.3 7.7 8.1
4.3 4.4 4.9 5.5 4.7 4.6 4.7 4.8 4.6 4.8 6.3 6.0 4.9 4.9 5.6 6.0 7.6 6.8 6.7 6.6 6.5 6.0 6.8 5.8 5.5 5.1 5.5 5.6 6.4 6.7 4.0 6.2 4.8 3.0 3.0 3.0 3.0 3.4 5.6 5.1 4.9 5.2 5.7 5.9 5.9 6.4 6.1 6.3 7.9 7.0 7.9 8.3 8.5 8.8